Hourly Data Report for October 23, 2016

All times are specified in Local Standard Time (LST). Add 1 hour to adjust for Daylight Saving Time where and when it is observed.

PETAWAWA AWOS 2
ONTARIO

45°57'00.000" N
77°19'00.000" W
130.10 m
6106396
71625
YWA

Download Data

Hourly Data (October 2016)
Hourly Data Report for October 23, 2016
Temp Definition
°C
Dew Point Temp Definition
°C
Rel Hum Definition
%
Wind Dir Definition
10's deg

Wind Spd Definition
km/h
Visibility Definition
km
Stn Press Definition
kPa
Hmdx Definition


Wind Chill Definition


Weather Definition


TIME
00:00 4.5 -2.7 60 32 30 14.5 98.71     Snow
01:00 3.7 -2.4 64 31 22 14.5 98.74     Snow
02:00 3.3 -2.7 65 31 26 14.5 98.79     Snow
03:00 2.6 -3.3 65 31 28 14.5 98.78     Snow
04:00 2.1 -2.9 70 30 19 14.5 98.81     Snow
05:00 1.3 -3.2 72 29 24 14.5 98.85     Snow
06:00 0.6 -3.6 73 28 24 14.5 98.87     Snow
07:00 0.0 -3.8 76 29 19 14.5 98.92   -5 Snow
08:00 1.3 -3.6 70 29 22 14.5 98.97     Snow
09:00 3.0 -3.8 61 30 32 14.5 99.00     Snow
10:00 5.1 -4.4 50 29 30 14.5 99.00     Snow
11:00 6.7 -5.1 43 30 20 14.5 98.98     Snow
12:00 8.2 -4.9 39 29 35 14.5 98.99     Snow
13:00 9.6 -0.9 48 28 37 14.5 98.98     Snow
14:00 9.5 -1.0 48 29 32 14.5 99.03     LegendNANA
15:00 8.9 -0.2 53 28 30 14.5 99.05     LegendNANA
16:00 8.2 1.0 60 30 22 14.5 99.10     LegendNANA
17:00 7.6 1.3 64 28 19 14.5 99.12     Drizzle
18:00 7.0 1.2 66 28 13 14.5 99.18     LegendNANA
19:00 7.1 1.6 68 28 15 14.5 99.22     Drizzle
20:00 6.6 1.6 70 28 13 14.5 99.20     Drizzle
21:00 6.5 2.7 77 30 7 14.5 99.23     Rain
22:00 5.7 3.8 88 28 7 14.5 99.23     Drizzle
23:00 5.3 2.3 81 30 26 14.5 99.23     Rain

Notes on Data Quality.

Legend

  • E = Estimated
  • M = Missing
  • NA = Not Available
  • ‡ = Partner data that is not subject to review by the National Climate Archives
Date modified: